Vorticity
9 10 7 2 -0 -1 1 5 8 12 16 13 10 8 7 6 6 6 7 8 9 9 9 8 7 8 9 9 9 9 10 14 12 11 8 8 8 6 6 4 5 5 6
8 7 1 -1 0 1 5 9 13 14 10 9 7 6 6 7 6 7 6 5 5 5 4 4 4 4 4 4 4 5 5 6 2 3 0 4 4 8 5 6 7 7 7
5 2 1 0 2 6 9 14 12 9 7 6 7 6 5 3 2 3 3 3 3 3 4 4 4 5 4 6 6 6 7 7 8 6 5 7 7 4 5 7 9 7 7
-0 1 4 7 8 12 16 11 9 9 7 6 3 2 3 4 4 5 6 7 7 6 6 6 6 5 5 5 4 4 4 4 5 4 7 6 7 7 4 4 8 7 8
3 5 9 15 16 15 8 7 5 4 6 6 6 7 8 8 7 5 4 4 3 3 3 3 3 3 3 3 3 3 4 3 4 5 7 7 9 17 18 20 12 16 16
8 12 11 8 9 6 4 7 8 8 6 6 6 5 4 3 3 3 4 4 6 7 8 10 11 11 12 12 12 13 14 13 12 9 12 19 11 18 18 13 7 7 1
11 9 6 6 6 9 11 7 5 4 4 3 3 3 4 4 5 7 9 11 11 10 8 7 7 7 8 8 8 7 6 7 7 7 7 6 6 9 7 5 9 4 8
8 7 7 11 8 3 2 4 4 4 4 4 5 5 8 10 10 6 3 4 3 3 4 5 7 10 11 11 10 8 5 3 3 4 3 4 8 2 2 6 4 6 11
6 9 7 6 5 4 3 6 4 4 6 8 9 6 2 2 3 4 7 9 9 7 8 8 8 8 9 8 8 7 7 7 7 6 6 8 8 10 11 9 9 16 21
8 5 5 5 4 4 5 6 8 7 4 1 3 1 0 5 7 7 3 0 0 1 2 2 2 1 2 3 6 8 10 5 9 10 10 9 8 10 14 12 10 12 15
8 7 5 4 6 7 9 9 4 -4 1 3 3 4 4 3 4 2 0 1 3 3 2 3 3 3 3 3 5 7 10 13 12 11 10 9 8 4 6 8 8 9 8
6 5 6 9 9 5 2 0 1 5 3 2 4 4 5 5 4 2 2 3 3 1 3 4 6 8 10 13 15 14 13 11 7 6 10 14 13 17 19 12 11 11 9
7 9 9 4 2 -0 0 2 2 3 3 5 6 6 5 3 3 4 4 3 1 2 4 11 16 14 15 13 14 12 11 10 13 16 13 6 10 11 11 12 12 12 10
9 8 5 2 2 3 3 2 3 6 6 5 3 1 3 7 5 4 3 3 6 8 9 12 15 19 19 21 22 20 20 11 14 15 12 10 10 14 14 6 9 14 8
4 4 4 3 2 1 4 6 5 5 4 1 5 7 6 4 4 6 6 7 13 18 17 15 16 21 22 21 18 16 16 17 13 14 14 11 14 16 15 17 19 15 12
3 2 4 4 3 4 4 4 5 4 4 9 7 4 5 6 6 11 16 17 15 15 22 30 29 20 16 13 14 13 13 11 9 9 10 12 12 9 8 9 10 11 12
1 2 3 3 5 5 5 6 5 9 7 5 5 5 6 12 19 20 20 20 25 30 22 17 16 16 20 16 11 9 7 8 7 7 10 9 8 7 8 8 8 8 7
2 6 9 10 11 10 7 10 10 4 6 8 8 8 17 27 24 22 24 24 19 18 19 16 12 8 5 4 4 4 6 7 8 10 11 11 10 11 11 9 10 10 8
7 9 9 6 7 7 11 5 6 3 6 5 11 22 25 27 24 21 16 14 12 9 8 6 4 2 3 5 8 9 8 6 10 15 19 24 27 27 27 23 15 11 12
9 7 6 6 9 8 5 1 3 5 4 17 31 26 22 18 15 12 10 8 6 5 4 3 0 2 1 4 5 7 10 14 18 21 26 25 24 23 21 21 23 25 24
5 6 7 10 9 -0 1 7 4 8 27 33 21 17 16 13 12 11 8 4 4 4 4 5 5 2 5 7 10 12 12 15 21 23 24 24 27 27 25 23 24 24 22
7 7 8 7 0 2 6 3 10 23 31 18 18 16 15 13 12 9 7 7 7 6 3 3 5 7 10 11 12 16 23 25 25 27 27 26 26 25 25 24 24 20 16
4 9 8 0 1 6 7 17 24 28 26 17 15 12 11 8 8 8 6 4 2 4 6 8 10 12 18 24 27 26 27 32 28 27 22 23 24 25 23 25 20 14 12
10 8 2 -1 6 9 17 23 24 23 12 11 12 12 12 9 7 3 3 5 7 8 12 17 22 27 31 32 30 29 30 26 22 19 14 17 23 25 26 23 18 11 6
10 3 0 6 7 21 26 23 19 14 13 13 12 9 5 3 4 5 7 10 16 25 33 35 35 36 36 34 29 25 23 25 20 16 17 23 19 22 27 22 11 5 20
3 -0 7 10 21 26 23 14 13 11 10 8 6 4 5 6 8 12 17 23 37 31 29 29 28 30 24 18 17 19 23 15 11 12 17 21 20 29 29 13 4 10 4
Height
5820 5821 5821 5822 5822 5822 5821 5819 5816 5813 5810 5807 5804 5801 5799 5796 5794 5792 5789 5787 5784 5782 5779 5777 5774 5770 5766 5763 5760 5756 5752 5748 5742 5737 5734 5729 5727 5723 5719 5713 5708 5704 5699
5816 5817 5817 5816 5815 5814 5812 5810 5808 5806 5804 5802 5798 5795 5792 5790 5787 5785 5783 5780 5777 5774 5771 5768 5765 5761 5758 5753 5749 5744 5740 5737 5730 5726 5720 5718 5717 5712 5704 5700 5696 5692 5688
5812 5812 5811 5810 5808 5806 5804 5801 5799 5797 5796 5793 5792 5790 5788 5785 5781 5778 5775 5772 5769 5765 5761 5757 5753 5749 5745 5741 5736 5731 5726 5721 5717 5712 5705 5700 5699 5696 5694 5687 5682 5677 5673
5807 5806 5805 5804 5802 5800 5798 5795 5792 5790 5788 5786 5784 5781 5779 5776 5773 5770 5766 5762 5758 5753 5749 5746 5741 5736 5731 5727 5722 5717 5713 5707 5703 5697 5693 5687 5680 5674 5671 5674 5667 5661 5658
5801 5800 5799 5798 5796 5794 5792 5789 5787 5785 5782 5780 5777 5774 5771 5768 5764 5760 5756 5752 5747 5742 5738 5733 5728 5723 5718 5713 5707 5702 5696 5691 5686 5681 5674 5668 5664 5659 5650 5646 5651 5645 5643
5795 5793 5792 5791 5790 5788 5786 5784 5781 5777 5774 5771 5768 5765 5761 5758 5754 5750 5745 5740 5735 5730 5725 5720 5715 5710 5704 5698 5692 5685 5679 5674 5667 5662 5656 5651 5644 5642 5635 5628 5627 5625 5628
5788 5787 5786 5785 5784 5782 5780 5776 5773 5769 5766 5763 5759 5755 5751 5746 5742 5737 5732 5727 5722 5717 5712 5706 5700 5694 5688 5682 5676 5670 5664 5658 5652 5646 5639 5633 5628 5624 5620 5613 5609 5604 5605
5782 5781 5780 5778 5776 5774 5770 5767 5763 5760 5756 5753 5749 5744 5739 5734 5730 5725 5720 5714 5708 5703 5697 5691 5685 5678 5671 5665 5659 5654 5648 5641 5634 5628 5622 5616 5612 5608 5603 5598 5592 5587 5586
5776 5773 5771 5770 5768 5766 5762 5759 5755 5751 5747 5742 5737 5733 5728 5723 5718 5712 5705 5700 5693 5687 5681 5674 5668 5661 5653 5646 5638 5632 5626 5619 5614 5608 5602 5597 5592 5588 5583 5578 5572 5567 5564
5767 5766 5764 5762 5760 5757 5753 5750 5746 5741 5738 5734 5728 5724 5718 5712 5705 5699 5692 5686 5679 5671 5664 5656 5648 5641 5633 5625 5617 5610 5603 5595 5590 5584 5579 5574 5569 5566 5561 5556 5552 5546 5539
5760 5758 5756 5754 5751 5748 5744 5740 5737 5733 5728 5722 5717 5711 5705 5698 5691 5685 5677 5670 5663 5654 5645 5637 5629 5621 5612 5603 5595 5588 5580 5573 5568 5564 5557 5553 5547 5544 5540 5536 5532 5528 5523
5753 5752 5750 5746 5743 5738 5735 5732 5728 5722 5716 5710 5704 5697 5690 5683 5676 5668 5660 5652 5644 5635 5626 5618 5608 5598 5589 5579 5569 5562 5555 5548 5544 5540 5535 5532 5527 5524 5518 5511 5508 5505 5502
5746 5744 5741 5738 5733 5730 5725 5720 5715 5709 5703 5696 5689 5681 5673 5666 5658 5650 5642 5632 5623 5613 5603 5592 5582 5574 5564 5555 5545 5536 5532 5527 5523 5517 5512 5507 5503 5498 5493 5489 5486 5483 5479
5738 5737 5733 5729 5724 5718 5712 5706 5700 5693 5686 5678 5671 5664 5657 5649 5640 5631 5621 5610 5599 5588 5577 5567 5557 5546 5537 5527 5519 5512 5507 5504 5500 5494 5489 5485 5478 5474 5471 5466 5464 5461 5457
5728 5724 5720 5716 5711 5705 5699 5692 5683 5676 5669 5662 5655 5647 5639 5629 5619 5608 5596 5585 5574 5563 5551 5541 5532 5521 5513 5505 5497 5491 5486 5482 5478 5472 5466 5461 5456 5450 5445 5440 5442 5438 5436
5717 5713 5708 5703 5697 5690 5682 5675 5668 5660 5653 5644 5636 5628 5618 5606 5594 5582 5572 5560 5549 5538 5528 5518 5509 5503 5495 5486 5478 5471 5468 5461 5455 5451 5447 5441 5435 5429 5425 5421 5417 5416 5412
5705 5700 5695 5689 5683 5676 5669 5661 5654 5646 5637 5627 5616 5606 5596 5584 5571 5559 5546 5535 5526 5517 5508 5499 5491 5484 5476 5468 5460 5453 5446 5439 5433 5427 5423 5419 5413 5407 5400 5399 5398 5396 5393
5693 5687 5681 5675 5668 5661 5654 5646 5637 5628 5618 5607 5595 5583 5571 5558 5545 5533 5522 5513 5506 5498 5490 5482 5473 5466 5459 5449 5440 5432 5424 5416 5409 5401 5395 5390 5387 5380 5371 5372 5375 5374 5373
5681 5674 5668 5661 5653 5645 5636 5628 5619 5609 5596 5583 5569 5556 5544 5533 5522 5513 5504 5496 5488 5480 5472 5463 5456 5448 5441 5430 5419 5408 5400 5393 5384 5375 5368 5361 5357 5353 5344 5342 5345 5348 5350
5667 5659 5652 5644 5635 5627 5619 5610 5600 5588 5575 5561 5546 5533 5522 5512 5504 5495 5486 5478 5469 5462 5453 5446 5436 5427 5419 5408 5394 5381 5370 5364 5355 5348 5341 5335 5329 5325 5321 5317 5318 5322 5325
5652 5644 5634 5626 5618 5611 5601 5589 5578 5567 5552 5538 5526 5515 5504 5494 5485 5478 5468 5460 5452 5443 5434 5426 5417 5407 5395 5382 5369 5358 5345 5337 5328 5322 5317 5312 5306 5304 5301 5298 5299 5302 5305
5635 5626 5619 5610 5601 5592 5581 5569 5556 5543 5530 5519 5507 5497 5488 5477 5468 5460 5451 5441 5430 5422 5412 5401 5392 5382 5371 5356 5344 5332 5322 5314 5305 5301 5296 5291 5288 5285 5284 5284 5285 5287 5290
5616 5608 5601 5592 5583 5572 5560 5546 5533 5522 5512 5501 5490 5480 5472 5461 5451 5442 5432 5422 5410 5396 5385 5373 5362 5354 5345 5332 5318 5308 5301 5294 5288 5283 5278 5275 5273 5271 5271 5272 5275 5278 5280
5600 5592 5583 5573 5561 5547 5533 5523 5513 5503 5493 5484 5474 5465 5457 5447 5436 5425 5411 5399 5385 5370 5357 5344 5333 5323 5316 5305 5295 5288 5284 5282 5278 5273 5268 5262 5262 5261 5262 5263 5266 5270 5273
5585 5575 5564 5552 5540 5528 5514 5503 5494 5485 5477 5469 5460 5450 5440 5428 5417 5405 5390 5378 5364 5343 5329 5318 5307 5297 5294 5287 5279 5274 5272 5270 5266 5264 5260 5255 5252 5252 5253 5256 5260 5264 5267
5568 5557 5546 5534 5522 5510 5498 5488 5479 5470 5461 5453 5443 5432 5420 5409 5395 5381 5374 5361 5342 5329 5313 5300 5291 5285 5277 5273 5268 5264 5262 5258 5255 5254 5251 5247 5245 5245 5247 5252 5257 5259 5261